Location: Aalen
(48.8330°N, 10.1000°E)
Time: 20:38:37
(UTC+02:00)

S-56A Canister/Altair - Pass Details

Date: 09 August 2021
Orbit: 632 x 2500 km, 38.9° (Epoch: 19 September)

Event Time Altitude Azimuth Distance (km) Brightness Sun altitude
Rises 16:50:25 0° 264° (W) 5,284 12.7 36.8°
Reaches altitude 10° 16:53:38 10° 260° (W) 4,496 12.7 36.3°
Maximum altitude 17:06:10 54° 189° (S) 2,792 11.1 34.4°
Drops below altitude 10° 17:20:36 10° 118° (ESE) 5,114 11.4 32.1°
Sets 17:24:33 0° 115° (ESE) 6,034 11.7 31.4°
